TimeMST,TemperatureF,Dew PointF,Humidity,Sea Level PressureIn,VisibilityMPH,Wind Direction,Wind SpeedMPH,Gust SpeedMPH,PrecipitationIn,Events,Conditions,WindDirDegrees,DateUTC
12:53 AM,75.9,37.9,25,29.78,10.0,Calm,Calm,-,N/A,,Clear,0,2012-10-03 07:53:00
1:53 AM,73.9,42.1,32,29.79,10.0,Calm,Calm,-,N/A,,Clear,0,2012-10-03 08:53:00
2:53 AM,73.9,43.0,33,29.80,10.0,Calm,Calm,-,N/A,,Clear,0,2012-10-03 09:53:00
3:53 AM,73.0,39.9,30,29.81,10.0,Calm,Calm,-,N/A,,Clear,0,2012-10-03 10:53:00
4:53 AM,73.0,41.0,31,29.82,10.0,Calm,Calm,-,N/A,,Clear,0,2012-10-03 11:53:00
5:53 AM,72.0,39.9,31,29.83,10.0,Calm,Calm,-,N/A,,Clear,0,2012-10-03 12:53:00
6:53 AM,73.0,39.0,29,29.85,10.0,Calm,Calm,-,N/A,,Clear,0,2012-10-03 13:53:00
7:53 AM,78.1,39.0,25,29.87,10.0,Calm,Calm,-,N/A,,Clear,0,2012-10-03 14:53:00
8:53 AM,82.0,43.0,25,29.89,10.0,Variable,3.5,-,N/A,,Clear,0,2012-10-03 15:53:00
9:53 AM,88.0,37.9,17,29.90,10.0,SSE,5.8,-,N/A,,Clear,160,2012-10-03 16:53:00
10:53 AM,90.0,39.9,17,29.90,10.0,Variable,6.9,-,N/A,,Clear,0,2012-10-03 17:53:00
11:53 AM,93.0,41.0,16,29.89,10.0,South,8.1,-,N/A,,Clear,180,2012-10-03 18:53:00
1:53 PM,96.1,37.9,13,29.85,10.0,East,5.8,-,N/A,,Clear,90,2012-10-03 20:53:00
2:53 PM,98.1,36.0,11,29.83,10.0,Calm,Calm,-,N/A,,Clear,0,2012-10-03 21:53:00
3:53 PM,98.1,33.1,10,29.82,10.0,WSW,6.9,-,N/A,,Clear,240,2012-10-03 22:53:00
4:53 PM,98.1,34.0,11,29.82,10.0,WSW,6.9,-,N/A,,Clear,250,2012-10-03 23:53:00
5:53 PM,96.1,36.0,12,29.82,10.0,Calm,Calm,-,N/A,,Clear,0,2012-10-04 00:53:00
6:53 PM,91.9,39.0,16,29.83,10.0,Calm,Calm,-,N/A,,Clear,0,2012-10-04 01:53:00
7:53 PM,89.1,39.9,18,29.84,10.0,NE,3.5,-,N/A,,Clear,50,2012-10-04 02:53:00
8:53 PM,86.0,41.0,20,29.86,10.0,Calm,Calm,-,N/A,,Clear,0,2012-10-04 03:53:00
9:53 PM,84.0,41.0,22,29.87,10.0,Calm,Calm,-,N/A,,Clear,0,2012-10-04 04:53:00
10:53 PM,82.9,41.0,23,29.88,10.0,NE,4.6,-,N/A,,Clear,50,2012-10-04 05:53:00
11:53 PM,82.0,41.0,23,29.88,10.0,Calm,Calm,-,N/A,,Clear,0,2012-10-04 06:53:00